Fort Eustis, VA

7:12 AM EST on November 13, 2019 (GMT -0500)
Felker Army Air Field

Weather History for KFAF - September, 2019

Change the Weather History Date:

Sunday, September 29, 2019

  Actual Average Record
Temperature  
Mean Temperature 80 °F -  
Max Temperature 89 °F 74 °F 84 °F (1998)
Min Temperature 72 °F 58 °F 51 °F (2006)
Cooling Degree Days 16    
Growing Degree Days 30 (Base 50)    
Moisture  
Dew Point 70 °F    
Average Humidity 74    
Maximum Humidity 87    
Minimum Humidity 54    
Precipitation  
Precipitation 0.00 in - - ()
Sea Level Pressure  
Sea Level Pressure 30.16 in    
Wind  
Wind Speed 5 mph ()    
Max Wind Speed 12 mph    
Max Gust Speed -    
Visibility 10.0 miles    
Events      
Averages and records for this station are not official NWS values.
T = Trace of Precipitation, MM = Missing Value Source: Averaged Metar Reports

Daily Weather History Graph

Daily Weather History Graph

Search for Another Location

Airport or City:

Astronomy

Sep. 29, 2019 Rise Set
Actual Time 6:59 AM EDT 6:53 PM EDT
Civil Twilight 6:33 AM EDT 7:18 PM EDT
Nautical Twilight 6:03 AM EDT 7:49 PM EDT
Astronomical Twilight 5:33 AM EDT 8:19 PM EDT
Moon 7:47 AM EDT (9/29) 7:53 PM EDT (9/29)
Length of Visible Light 12h 44m
Length of Day
11h 53m
New Moon, 1% of the Moon is Illuminated
Sep 29
New Moon
Oct 5
First Quarter
Oct 13
Full
Oct 21
Last Quarter
Oct 27
New

Hourly Weather History & Observations

Time (EDT) Temp. Heat Index Dew Point Humidity Pressure Visibility Wind Dir Wind Speed Gust Speed Precip Events Conditions
12:56 AM 78.8 °F - 69.4 °F 73% 30.09 in 10.0 mi SW 5.8 mph - N/A   Clear
1:56 AM 77.4 °F - 69.4 °F 76% 30.10 in 10.0 mi SW 4.6 mph - N/A   Clear
2:56 AM 77.2 °F - 68.9 °F 76% 30.09 in 10.0 mi West 3.5 mph - N/A   Clear
3:56 AM 75.4 °F - 68.4 °F 79% 30.09 in 10.0 mi Calm Calm - N/A   Clear
4:56 AM 75.6 °F - 69.6 °F 82% 30.10 in 10.0 mi Calm Calm - N/A   Clear
5:56 AM 75.0 °F - 69.4 °F 83% 30.12 in 10.0 mi NW 4.6 mph - N/A   Clear
6:56 AM 73.8 °F - 69.6 °F 87% 30.13 in 10.0 mi WNW 3.5 mph - N/A   Clear
7:56 AM 76.6 °F - 71.4 °F 84% 30.15 in 10.0 mi NNW 9.2 mph - N/A   Clear
8:56 AM 78.4 °F - 70.5 °F 77% 30.16 in 10.0 mi North 4.6 mph - N/A   Clear
9:56 AM 82.8 °F 86.9 °F 70.2 °F 66% 30.17 in 10.0 mi NNE 3.5 mph - N/A   Clear
10:56 AM 86.5 °F 91.8 °F 70.9 °F 59% 30.17 in 10.0 mi NNE 6.9 mph - N/A   Clear
11:56 AM 87.6 °F 93.5 °F 71.4 °F 58% 30.17 in 10.0 mi ENE 9.2 mph - N/A   Clear
12:56 PM 88.5 °F 94.9 °F 71.8 °F 57% 30.17 in 10.0 mi East 9.2 mph - N/A   Clear
1:56 PM 88.7 °F 93.9 °F 70.3 °F 54% 30.16 in 10.0 mi East 9.2 mph - N/A   Clear
2:56 PM 86.9 °F 94.5 °F 73.6 °F 64% 30.16 in 10.0 mi NE 11.5 mph - N/A   Partly Cloudy
3:56 PM 84.9 °F 92.1 °F 73.6 °F 69% 30.16 in 10.0 mi East 8.1 mph - N/A   Scattered Clouds
4:56 PM 83.7 °F 89.4 °F 72.7 °F 69% 30.16 in 10.0 mi East 9.2 mph - N/A   Scattered Clouds
5:56 PM 80.6 °F 84.2 °F 70.7 °F 72% 30.16 in 10.0 mi East 9.2 mph - N/A   Clear
6:56 PM 77.0 °F - 68.7 °F 75% 30.17 in 10.0 mi East 11.5 mph - N/A   Clear
7:56 PM 74.8 °F - 67.8 °F 79% 30.19 in 10.0 mi East 10.4 mph - N/A   Clear
8:56 PM 73.9 °F - 67.6 °F 81% 30.21 in 10.0 mi East 8.1 mph - N/A   Clear
9:56 PM 73.2 °F - 67.6 °F 83% 30.22 in 10.0 mi East 5.8 mph - N/A   Clear
10:56 PM 73.0 °F - 67.8 °F 84% 30.22 in 10.0 mi East 4.6 mph - N/A   Clear
11:56 PM 72.9 °F - 67.6 °F 84% 30.22 in 10.0 mi East 4.6 mph - N/A   Clear